Regional Weather Roundup
Issued by NWS

Home | Current Version | Previous Version | Text Only | Print | Product List | Glossary Off
Versions: 1 2 3 4 5 6 7 8 9 10 11 12 13 14 15 16 17 18 19 20 21 22 23 24 25 26 27 28 29 30 31 32 33 34 35 36 37 38 39 40 41 42 43 44 45 46 47 48 49 50

000
ASUS43 KFSD 241102
RWRSD

WEATHER ROUNDUP FOR SOUTH DAKOTA
NATIONAL WEATHER SERVICE SIOUX FALLS SD
600 AM CDT TUE MAY 24 2016

NOTE: "FAIR" INDICATES FEW OR NO CLOUDS BELOW 12,000 FEET WITH NO
SIGNIFICANT WEATHER AND/OR OBSTRUCTIONS TO VISIBILITY.


SDZ001>005-009-010-012>017-241200-
NORTHWEST AND NORTH CENTRAL SOUTH DAKOTA

CITY           SKY/WX    TMP DP  RH WIND       PRES   REMARKS
BUFFALO          N/A     45  35  68 NW5       29.81R
FAITH            N/A     44  39  82 NW9       29.84R
MOBRIDGE       CLEAR     51  46  83 VRB3      29.78R
$$

SDZ012>016-024>037-041>051-057-063-072>074-241200-
SOUTHWEST AND SOUTH CENTRAL SOUTH DAKOTA

CITY           SKY/WX    TMP DP  RH WIND       PRES   REMARKS
RAPID CTY ARPT CLEAR     47  35  63 NW10      29.87R
PIERRE         CLEAR     46  43  89 N7        29.78R
CUSTER         CLEAR     38  27  64 NW6       29.92S
PHILIP         CLEAR     41  39  93 W8        29.83R
PINE RIDGE     CLEAR     37  33  85 CALM      29.87R
WINNER         FAIR      51  42  71 NE3       29.81R
$$

SDZ004>011-016>023-039-040-241200-
NORTHEAST SOUTH DAKOTA

CITY           SKY/WX    TMP DP  RH WIND       PRES   REMARKS
ABERDEEN       CLEAR     57  48  72 NE12      29.78S
WATERTOWN      CLEAR     59  55  87 NW3       29.82R
BROOKINGS      CLEAR     59  58  96 S6        29.81S FOG
SISSETON         N/A     57  49  74 N8        29.80R
$$

SDZ017-020-022-023-036>040-048>070-241200-
SOUTHEAST SOUTH DAKOTA

CITY           SKY/WX    TMP DP  RH WIND       PRES   REMARKS
SIOUX FALLS    MOCLDY    61  59  93 S6        29.80S FOG
HURON          FOG       58  58 100 SE7       29.77S VSB 1/4
MITCHELL       FOG       55  55 100 E5        29.78F VSB 1/2
YANKTON        CLOUDY    57  55  94 S6        29.79S
$$

ABBREVIATIONS USED IN REMARKS
   TC - TEMPERATURE IN CELSIUS
  WCI - WIND CHILL INDEX
   HX - HEAT INDEX
  VSB - VISIBILITY




USA.gov is the U.S. government's official web portal to all federal, state and local government web resources and services.